Torna al catalogo

THORAD AGENA D DEB

AttivoPO
NORAD 4733·DEBRIS·🇺🇸 United States

Lanciato Apr 8, 1970 da Vandenberg Space Force Base

Loading…

Prossimi Passaggi (prossime 24 ore)

TLE

AggiornatoSource: Space-Track

Epoca: Sep 14, 2026, 02:13 UTC

1 04733U 70025CG  26257.09246768  .00002046  00000-0  34070-3 0  9994
2 04733  99.8961 304.3504 0089701  23.8129 336.7182 14.68959175918496

Traccia THORAD AGENA D DEB in tempo reale con AllMySat

Download on the App Store